FW6296 Weather Reports


Display with metric or nautical units.
time (UTC)temp
F
wind
direction
speed
MPH
gust
MPH
rain 1hr
in
rain 24hr
in
rain mn
in
humidity
%
barometer
mb
20260902200538 97 282 2.0 5.0 0.00 0.00 0.00 48 1014.0
20260902195519 97 287 2.0 6.0 0.00 0.00 0.00 49 1014.1
20260902194518 96 278 2.0 5.0 0.00 0.00 0.00 50 1014.1
20260902193518 96 273 2.0 6.0 0.00 0.00 0.00 50 1014.2
20260902192515 96 287 2.0 5.0 0.00 0.00 0.00 50 1014.2
20260902191518 96 275 2.0 6.0 0.00 0.00 0.00 50 1014.3
20260902190516 95 292 2.0 6.0 0.00 0.00 0.00 52 1014.4
20260902185536 95 282 2.0 6.0 0.00 0.00 0.00 51 1014.6
20260902184516 95 247 1.0 4.0 0.00 0.00 0.00 52 1014.6
20260902183516 94 279 2.0 6.0 0.00 0.00 0.00 55 1014.6
20260902182516 93 283 2.0 5.0 0.00 0.00 0.00 55 1014.6
20260902181516 93 277 2.0 5.0 0.00 0.00 0.00 56 1014.7
20260902180516 93 276 3.0 6.0 0.00 0.00 0.00 56 1014.7
20260902175517 93 274 1.0 4.0 0.00 0.00 0.00 55 1014.8
20260902174517 93 286 2.0 6.0 0.00 0.00 0.00 56 1014.8
20260902173517 92 273 2.0 4.0 0.00 0.00 0.00 56 1014.9
20260902172517 92 272 2.0 5.0 0.00 0.00 0.00 57 1014.8
20260902171517 92 272 1.0 4.0 0.00 0.00 0.00 57 1015.0
20260902170518 91 275 2.0 6.0 0.00 0.00 0.00 57 1015.1
20260902165518 90 281 3.0 7.0 0.00 0.00 0.00 58 1015.2
20260902164518 90 287 3.0 6.0 0.00 0.00 0.00 59 1015.4
20260902163518 90 286 3.0 6.0 0.00 0.00 0.00 59 1015.3
20260902162536 89 286 2.0 6.0 0.00 0.00 0.00 59 1015.3
20260902161516 89 277 2.0 6.0 0.00 0.00 0.00 61 1015.4
20260902160536 88 273 3.0 5.0 0.00 0.00 0.00 64 1015.4
20260902155516 87 291 3.0 7.0 0.00 0.00 0.00 64 1015.6
20260902154516 87 278 2.0 6.0 0.00 0.00 0.00 65 1015.2
20260902153516 86 277 2.0 6.0 0.00 0.00 0.00 66 1015.2
20260902152516 86 268 2.0 7.0 0.00 0.00 0.00 66 1015.2
20260902151516 85 282 3.0 6.0 0.00 0.00 0.00 67 1015.1
20260902150517 85 269 2.0 6.0 0.00 0.00 0.00 68 1015.0
20260902145516 85 243 2.0 6.0 0.00 0.00 0.00 68 1015.1
20260902144517 84 259 0.0 3.0 0.00 0.00 0.00 69 1015.2
20260902143537 84 271 1.0 4.0 0.00 0.00 0.00 70 1015.2
20260902142517 83 275 1.0 4.0 0.00 0.00 0.00 70 1015.2
20260902141518 84 264 2.0 5.0 0.00 0.00 0.00 69 1015.2
20260902140517 83 263 0.0 4.0 0.00 0.00 0.00 70 1015.3
20260902135538 82 261 1.0 5.0 0.00 0.00 0.00 71 1015.3
20260902134518 82 236 1.0 3.0 0.00 0.00 0.00 72 1015.4
20260902133518 81 245 1.0 3.0 0.00 0.00 0.00 73 1015.5
20260902132518 79 28 0.0 3.0 0.00 0.00 0.00 75 1015.5
20260902131535 78 245 0.0 2.0 0.00 0.00 0.00 77 1015.5
20260902130516 77 123 0.0 2.0 0.00 0.00 0.00 79 1015.5
20260902125536 77 84 0.0 2.0 0.00 0.00 0.00 78 1015.5
20260902124516 76 0.0 0.0 0.00 0.00 0.00 80 1015.5
20260902123516 76 230 0.0 1.0 0.00 0.00 0.00 81 1015.5
20260902122516 75 188 0.0 2.0 0.00 0.00 0.00 82 1015.5
20260902121517 75 0.0 0.0 0.00 0.00 0.00 82 1015.5
20260902120517 75 0.0 0.0 0.00 0.00 0.00 83 1015.4
20260902115518 74 0.0 0.0 0.00 0.00 0.00 83 1015.4
20260902114518 74 0.0 0.0 0.00 0.00 0.00 84 1015.4
20260902113518 74 262 0.0 1.0 0.00 0.00 0.00 84 1015.4
20260902112518 74 0.0 0.0 0.00 0.03 0.00 85 1015.5
20260902111515 73 0.0 0.0 0.00 0.04 0.00 86 1015.4
20260902110516 74 0.0 0.0 0.00 0.04 0.00 85 1015.3
20260902105536 74 0.0 0.0 0.00 0.06 0.00 85 1015.3
20260902104516 74 0.0 0.0 0.00 0.08 0.00 85 1015.3
20260902103516 73 0.0 0.0 0.00 0.09 0.00 85 1015.2
20260902102516 73 0.0 0.0 0.00 0.13 0.00 86 1015.3
20260902101517 73 121 0.0 2.0 0.00 0.20 0.00 86 1015.3
20260902100517 73 0.0 0.0 0.00 0.20 0.00 87 1015.3
20260902095517 73 0.0 0.0 0.00 0.20 0.00 88 1015.2
20260902094517 73 0.0 0.0 0.00 0.20 0.00 88 1015.1
20260902093517 73 0.0 0.0 0.00 0.20 0.00 87 1015.0
20260902092517 74 0.0 0.0 0.00 0.20 0.00 86 1015.0
20260902091538 74 0.0 0.0 0.00 0.20 0.00 86 1015.1
20260902090518 74 113 0.0 1.0 0.00 0.20 0.00 85 1015.2
20260902085518 74 109 0.0 2.0 0.00 0.20 0.00 86 1015.1
20260902084518 75 0.0 0.0 0.00 0.20 0.00 84 1015.1
20260902083538 76 0.0 0.0 0.00 0.20 0.00 82 1015.0
20260902082515 76 0.0 0.0 0.00 0.20 0.00 81 1014.8
20260902081536 76 0.0 0.0 0.00 0.20 0.00 81 1014.8
20260902080516 77 0.0 0.0 0.00 0.20 0.00 80 1014.8
20260902075516 77 0.0 0.0 0.00 0.20 0.00 79 1014.7
20260902074516 77 223 0.0 3.0 0.00 0.20 0.00 79 1014.8
20260902073516 77 232 0.0 3.0 0.00 0.20 0.00 79 1014.7
20260902072516 78 302 0.0 1.0 0.00 0.20 0.00 79 1014.6
20260902071517 78 168 0.0 2.0 0.00 0.20 0.00 78 1014.7
20260902070517 78 148 0.0 3.0 0.00 0.20 0.00 77 1014.8
20260902065517 79 212 0.0 2.0 0.00 0.20 0.00 77 1014.8
20260902064518 79 217 0.0 3.0 0.00 0.20 0.00 76 1014.9
20260902063518 79 202 1.0 3.0 0.00 0.20 0.00 76 1014.9
20260902062538 79 177 1.0 3.0 0.00 0.20 0.00 75 1014.8
20260902061517 80 233 1.0 5.0 0.00 0.20 0.00 75 1014.8
20260902060519 80 232 1.0 4.0 0.00 0.20 0.00 75 1014.8
20260902055518 80 244 1.0 4.0 0.00 0.20 0.00 75 1014.9
20260902054518 80 225 1.0 3.0 0.00 0.20 0.00 75 1014.9
20260902053515 80 241 1.0 6.0 0.00 0.20 0.00 74 1014.9
20260902052516 80 233 1.0 3.0 0.00 0.20 0.00 75 1014.9
20260902051516 80 238 0.0 3.0 0.00 0.20 0.00 75 1014.9
20260902050556 80 238 0.0 3.0 0.00 0.20 0.00 75 1015.0
20260902045516 80 233 0.0 2.0 0.00 0.20 0.20 74 1015.0
20260902044516 81 241 0.0 2.0 0.00 0.20 0.20 74 1015.0
20260902043516 81 249 0.0 2.0 0.00 0.20 0.20 74 1015.0
20260902042516 81 249 0.0 2.0 0.00 0.20 0.20 73 1015.1
20260902041517 82 228 1.0 3.0 0.00 0.20 0.20 72 1015.0
20260902040517 82 247 1.0 4.0 0.00 0.20 0.20 72 1015.1
20260902035517 82 241 1.0 4.0 0.00 0.20 0.20 73 1015.1
20260902034517 82 222 1.0 3.0 0.00 0.20 0.20 73 1015.1
20260902033517 82 238 1.0 3.0 0.00 0.20 0.20 73 1015.1
20260902032517 82 218 1.0 3.0 0.00 0.20 0.20 73 1015.1
20260902031518 82 214 0.0 3.0 0.00 0.20 0.20 73 1015.1
20260902030518 83 224 0.0 4.0 0.00 0.20 0.20 73 1015.1
20260902025518 83 224 1.0 4.0 0.00 0.20 0.20 73 1015.1
20260902024515 83 219 1.0 4.0 0.00 0.20 0.20 72 1015.1
20260902023516 83 240 1.0 4.0 0.00 0.20 0.20 71 1015.1
20260902022516 83 240 1.0 4.0 0.00 0.20 0.20 71 1015.0
20260902021516 84 248 1.0 3.0 0.00 0.20 0.20 71 1015.0
20260902020536 84 248 1.0 2.0 0.00 0.20 0.20 71 1014.9
20260902015517 84 240 1.0 5.0 0.00 0.20 0.20 71 1014.8
20260902014516 84 246 1.0 4.0 0.00 0.20 0.20 72 1014.7
20260902013516 85 241 1.0 5.0 0.00 0.20 0.20 72 1014.6
20260902012517 85 238 0.0 3.0 0.00 0.20 0.20 71 1014.5
20260902011537 86 243 1.0 4.0 0.00 0.20 0.20 70 1014.5
20260902010517 86 247 1.0 3.0 0.00 0.20 0.20 69 1014.4
20260902005517 87 235 1.0 3.0 0.00 0.20 0.20 68 1014.3
20260902004517 87 231 0.0 3.0 0.00 0.20 0.20 67 1014.3
20260902003517 88 226 1.0 3.0 0.00 0.20 0.20 64 1014.2
20260902002518 89 248 0.0 2.0 0.00 0.20 0.20 64 1014.2
20260902001515 90 232 0.0 4.0 0.00 0.20 0.20 63 1014.3
20260902000518 91 237 1.0 3.0 0.00 0.20 0.20 61 1014.2
20260901235538 92 235 1.0 3.0 0.00 0.35 0.20 59 1014.3
20260901234515 93 258 0.0 3.0 0.00 0.65 0.20 57 1014.4
20260901233516 94 264 1.0 5.0 0.00 0.65 0.20 56 1014.4
20260901232516 95 241 0.0 3.0 0.00 0.65 0.20 55 1014.4
20260901231516 95 281 1.0 3.0 0.00 0.65 0.20 54 1014.4
20260901230536 95 274 0.0 3.0 0.00 0.65 0.20 54 1014.4
20260901225536 94 275 1.0 4.0 0.00 0.65 0.20 53 1014.4
20260901224516 94 279 1.0 5.0 0.00 0.65 0.20 53 1014.4
20260901223517 94 272 1.0 3.0 0.00 0.65 0.20 54 1014.4
20260901222517 94 277 1.0 4.0 0.00 0.65 0.20 56 1014.4
20260901221517 94 280 1.0 4.0 0.00 0.65 0.20 58 1014.5
20260901220517 95 276 1.0 4.0 0.00 0.65 0.20 57 1014.4
20260901215517 95 278 2.0 5.0 0.00 0.65 0.20 56 1014.4
20260901214517 94 279 2.0 5.0 0.00 0.65 0.20 56 1014.4
20260901213517 94 283 2.0 4.0 0.00 0.65 0.20 56 1014.4
20260901212518 95 273 1.0 4.0 0.00 0.65 0.20 56 1014.5
20260901211515 95 259 1.0 4.0 0.00 0.65 0.20 55 1014.5
20260901210536 95 276 1.0 5.0 0.00 0.65 0.20 54 1014.5
20260901205515 96 267 2.0 6.0 0.00 0.65 0.20 53 1014.5
20260901204515 96 266 1.0 5.0 0.00 0.65 0.20 53 1014.6
20260901203516 95 280 1.0 7.0 0.00 0.65 0.20 57 1014.7
20260901202516 96 269 2.0 5.0 0.00 0.65 0.20 56 1014.7
20260901201516 95 285 2.0 7.0 0.00 0.65 0.20 55 1014.7